Moline, IL

1:06 PM CDT on August 20, 2019 (GMT -0500)
Quad-City International

Weather History for KMLI - July, 2019

Change the Weather History Date:

Tuesday, July 16, 2019

  Actual Average Record
Temperature  
Mean Temperature 79 °F 76 °F  
Max Temperature 88 °F 86 °F 101 °F (1913)
Min Temperature 70 °F 65 °F 51 °F (2014)
Degree Days  
Heating Degree Days 0 0  
Month to date heating degree days 0 0  
Since 1 June heating degree days 2 19  
Since 1 July heating degree days 0 0  
Cooling Degree Days 14 11  
Month to date cooling degree days 248 172  
Year to date cooling degree days 547 462  
Since 1 June cooling degree days 481 386  
Growing Degree Days 28 (Base 50)    
Moisture  
Dew Point 69 °F    
Average Humidity 73    
Maximum Humidity 93    
Minimum Humidity 53    
Precipitation  
Precipitation 0.00 in 0.15 in 1.00 in (1903)
Month to date precipitation 1.02 2.38  
Year to date precipitation 30.63 20.73  
Snow  
Snow 0.00 in 0.00 in - ()
Month to date snowfall 0.0 0.0  
Since 1 June snowfall 0.0 0.0  
Since 1 July snowfall 0.0 0.0  
Snow Depth 0.00 in    
Sea Level Pressure  
Sea Level Pressure 29.89 in    
Wind  
Wind Speed 3 mph (SE)    
Max Wind Speed 9 mph    
Max Gust Speed 12 mph    
Visibility 10 miles    
Events      
T = Trace of Precipitation, MM = Missing Value Source: NWS Daily Summary

Daily Weather History Graph

Daily Weather History Graph

Search for Another Location

Airport or City:

Astronomy

Jul. 16, 2019 Rise Set
Actual Time 5:42 AM CDT 8:33 PM CDT
Civil Twilight 5:09 AM CDT 9:06 PM CDT
Nautical Twilight 4:27 AM CDT 9:47 PM CDT
Astronomical Twilight 3:39 AM CDT 10:35 PM CDT
Moon 8:40 PM CDT (7/16) 5:20 AM CDT (7/16)
Length of Visible Light 15h 57m
Length of Day
14h 51m
Full, 100% of the Moon is Illuminated
Jul 16
Full
Jul 16
Full
Jul 24
Last Quarter
Jul 31
New
Aug 7
First Quarter

Hourly Weather History & Observations

Time (CDT) Temp. Heat Index Dew Point Humidity Pressure Visibility Wind Dir Wind Speed Gust Speed Precip Events Conditions
12:52 AM 70.0 °F - 66.0 °F 87% 29.95 in 10.0 mi SE 3.5 mph - N/A   Clear
1:52 AM 72.0 °F - 68.0 °F 87% 29.92 in 10.0 mi SE 6.9 mph - N/A   Clear
2:52 AM 72.0 °F - 68.0 °F 87% 29.91 in 10.0 mi ESE 4.6 mph - N/A   Clear
3:18 AM 73.0 °F - 68.0 °F 84% 29.92 in 10.0 mi ESE 4.6 mph - N/A   Overcast
3:28 AM 73.0 °F - 68.0 °F 84% 29.92 in 10.0 mi ESE 4.6 mph - N/A   Overcast
3:40 AM 72.0 °F - 68.0 °F 87% 29.92 in 10.0 mi Calm Calm - N/A   Mostly Cloudy
3:52 AM 71.1 °F - 66.9 °F 87% 29.91 in 10.0 mi ESE 3.5 mph - N/A   Partly Cloudy
4:36 AM 72.0 °F - 68.0 °F 87% 29.91 in 10.0 mi Calm Calm - N/A   Mostly Cloudy
4:52 AM 71.1 °F - 66.9 °F 87% 29.89 in 10.0 mi Calm Calm - N/A   Mostly Cloudy
5:09 AM 71.1 °F - 68.0 °F 90% 29.91 in 10.0 mi Calm Calm - N/A   Mostly Cloudy
5:16 AM 71.1 °F - 68.0 °F 90% 29.91 in 10.0 mi Calm Calm - N/A   Overcast
5:52 AM 71.1 °F - 68.0 °F 90% 29.88 in 8.0 mi SE 4.6 mph - N/A   Overcast
6:18 AM 71.1 °F - 68.0 °F 90% 29.89 in 7.0 mi East 3.5 mph - N/A   Scattered Clouds
6:27 AM 72.0 °F - 69.1 °F 91% 29.90 in 8.0 mi Variable 3.5 mph - N/A   Mostly Cloudy
6:52 AM 72.0 °F - 69.1 °F 91% 29.87 in 8.0 mi SSE 8.1 mph - N/A   Overcast
7:28 AM 73.0 °F - 69.1 °F 87% 29.89 in 9.0 mi Variable 4.6 mph - N/A   Overcast
7:52 AM 73.9 °F - 70.0 °F 87% 29.88 in 9.0 mi Calm Calm - N/A   Overcast
8:52 AM 75.0 °F - 69.1 °F 82% 29.90 in 10.0 mi Calm Calm - N/A   Overcast
9:26 AM 75.0 °F - 69.1 °F 82% 29.92 in 10.0 mi NW 4.6 mph - N/A   Overcast
9:52 AM 75.9 °F - 70.0 °F 82% 29.91 in 10.0 mi West 3.5 mph - N/A   Overcast
10:52 AM 77.0 °F - 70.0 °F 79% 29.92 in 9.0 mi ENE 4.6 mph - N/A   Overcast
11:22 AM 78.1 °F - 70.0 °F 76% 29.93 in 10.0 mi NNW 3.5 mph - N/A   Overcast
11:52 AM 79.0 °F - 70.0 °F 74% 29.92 in 10.0 mi NW 4.6 mph - N/A   Overcast
12:52 PM 81.0 °F 84.4 °F 70.0 °F 69% 29.89 in 10.0 mi WNW 5.8 mph - N/A   Overcast
1:20 PM 81.0 °F 84.4 °F 70.0 °F 69% 29.90 in 10.0 mi NNE 3.5 mph - N/A   Overcast
1:43 PM 82.9 °F 87.0 °F 70.0 °F 65% 29.89 in 10.0 mi Variable 3.5 mph - N/A   Overcast
1:52 PM 82.9 °F 87.0 °F 70.0 °F 65% 29.88 in 10.0 mi NE 4.6 mph - N/A   Overcast
2:32 PM 82.9 °F 87.0 °F 70.0 °F 65% 29.88 in 10.0 mi Calm Calm - N/A   Overcast
2:52 PM 82.9 °F 86.5 °F 69.1 °F 63% 29.86 in 10.0 mi Calm Calm - N/A   Overcast
3:18 PM 84.0 °F 87.8 °F 69.1 °F 61% 29.87 in 10.0 mi NE 3.5 mph - N/A   Overcast
3:52 PM 84.0 °F 87.8 °F 69.1 °F 61% 29.85 in 10.0 mi Calm Calm - N/A   Overcast
4:52 PM 86.0 °F 90.1 °F 69.1 °F 57% 29.85 in 10.0 mi Variable 3.5 mph - N/A   Partly Cloudy
5:52 PM 87.1 °F 90.6 °F 68.0 °F 53% 29.83 in 10.0 mi Calm Calm - N/A   Partly Cloudy
6:52 PM 86.0 °F 90.7 °F 70.0 °F 59% 29.85 in 10.0 mi WSW 4.6 mph - N/A   Clear
7:52 PM 82.9 °F 87.5 °F 71.1 °F 67% 29.86 in 10.0 mi SW 3.5 mph - N/A   Clear
8:52 PM 79.0 °F - 71.1 °F 77% 29.87 in 10.0 mi SW 3.5 mph - N/A   Clear
9:52 PM 77.0 °F - 71.1 °F 82% 29.87 in 10.0 mi SW 3.5 mph - N/A   Clear
10:52 PM 75.9 °F - 70.0 °F 82% 29.86 in 10.0 mi WSW 4.6 mph - N/A   Clear
11:52 PM 75.9 °F - 70.0 °F 82% 29.88 in 10.0 mi Calm Calm - N/A   Partly Cloudy